{"data":{"norad_id":37867,"epoch":"2026-09-17T09:53:41.984736Z","epoch_age_seconds":281180,"freshness":"STALE","line1":"1 37867U 11064A   26260.41229149  .00000009  00000+0  00000+0 0  9998","line2":"2 37867  65.3277  69.7606 0022592 230.6839 126.2452  2.13103742115729","mean_motion":2.13103742,"eccentricity":0.0022592,"inclination_deg":65.3277,"raan_deg":69.7606,"arg_perigee_deg":230.6839,"mean_anomaly_deg":126.2452,"bstar":0,"rev_number":11572,"period_min":675.72722397338,"perigee_km":19072.121003694,"apogee_km":19187.375833168,"semimajor_km":25507.885418431,"source":"CELESTRAK","updated_at":"2026-09-20T09:00:46.274924Z"}}